Powrót do katalogu

STARLINK-4016

AktywnyŁącznośćVLEO
NORAD 52603·PAYLOAD·🇺🇸 United States

Wystrzelony May 14, 2022 z Cape Canaveral Space Force Station

Loading…

Następne Przeloty (najbliższe 24 godziny)

TLE

ŚwieżeSource: CelesTrak SupGP

Epoka: Sep 14, 2026, 21:39 UTC

1 52603C 22052F   26257.90256944 -.00022104  00000+0 -71065-3 0  2577
2 52603  53.1565 134.9000 0001124  94.5703  25.3469 15.31720209    16

Śledź STARLINK-4016 w czasie rzeczywistym z AllMySat

Download on the App Store